Year,Month,Day,Hour,Minute,Value (Times are PST for temperature in C)
2015,10,14,00,01,10.20
2015,10,14,00,02,10.20
2015,10,14,00,03,10.20
2015,10,14,00,04,10.20
2015,10,14,00,06,10.20
2015,10,14,00,07,10.20
2015,10,14,00,09,10.20
2015,10,14,00,10,10.20
2015,10,14,00,12,10.20
2015,10,14,00,13,10.20
2015,10,14,00,14,10.20
2015,10,14,00,16,10.20
2015,10,14,00,17,10.30
2015,10,14,00,18,10.30
2015,10,14,00,19,10.30
2015,10,14,00,21,10.30
2015,10,14,00,22,10.30
2015,10,14,00,23,10.30
2015,10,14,00,24,10.30
2015,10,14,00,26,10.30
2015,10,14,00,27,10.30
2015,10,14,00,28,10.30
2015,10,14,00,29,10.30
2015,10,14,00,31,10.30
2015,10,14,00,32,10.30
2015,10,14,00,33,10.20
2015,10,14,00,34,10.20
2015,10,14,00,36,10.20
2015,10,14,00,37,10.20
2015,10,14,00,38,10.20
2015,10,14,00,39,10.20
2015,10,14,00,41,10.20
2015,10,14,00,42,10.20
2015,10,14,00,43,10.10
2015,10,14,00,44,10.10
2015,10,14,00,46,10.10
2015,10,14,00,47,10.10
2015,10,14,00,48,10.10
2015,10,14,00,49,10.10
2015,10,14,00,51,10.10
2015,10,14,00,52,10.10
2015,10,14,00,53,10.10
2015,10,14,00,54,10.10
2015,10,14,00,56,10.10
2015,10,14,00,57,10.10
2015,10,14,00,58,10.10
2015,10,14,00,59,10.10
2015,10,14,01,01,10.10
2015,10,14,01,02,10.10
2015,10,14,01,03,10.10
2015,10,14,01,04,10.10
2015,10,14,01,06,10.10
2015,10,14,01,07,10.10
2015,10,14,01,08,10.10
2015,10,14,01,09,10.10
2015,10,14,01,11,10.10
2015,10,14,01,12,10.10
2015,10,14,01,13,10.10
2015,10,14,01,14,10.10
2015,10,14,01,16,10.10
2015,10,14,01,17,9.90
2015,10,14,01,18,9.90
2015,10,14,01,19,9.90
2015,10,14,01,21,9.90
2015,10,14,01,22,9.90
2015,10,14,01,23,9.90
2015,10,14,01,24,9.90
2015,10,14,01,26,9.90
2015,10,14,01,27,9.90
2015,10,14,01,28,9.90
2015,10,14,01,29,9.90
2015,10,14,01,31,9.90
2015,10,14,01,32,9.90
2015,10,14,01,33,9.90
2015,10,14,01,34,9.90
2015,10,14,01,35,9.90
2015,10,14,01,36,9.90
2015,10,14,01,37,9.90
2015,10,14,01,38,9.90
2015,10,14,01,39,9.90
2015,10,14,01,40,9.90
2015,10,14,01,41,9.90
2015,10,14,01,42,9.90
2015,10,14,01,43,9.90
2015,10,14,01,44,9.90
2015,10,14,01,45,9.90
2015,10,14,01,46,9.90
2015,10,14,01,47,9.80
2015,10,14,01,48,9.80
2015,10,14,01,49,9.80
2015,10,14,01,50,9.80
2015,10,14,01,51,9.80
2015,10,14,01,52,9.70
2015,10,14,01,53,9.70
2015,10,14,01,54,9.70
2015,10,14,01,55,9.70
2015,10,14,01,56,9.70
2015,10,14,01,57,9.70
2015,10,14,01,58,9.60
2015,10,14,01,59,9.60
2015,10,14,02,00,9.60
2015,10,14,02,01,9.50
2015,10,14,02,02,9.50
2015,10,14,02,03,9.40
2015,10,14,02,04,9.40
2015,10,14,02,05,9.30
2015,10,14,02,06,9.30
2015,10,14,02,07,9.30
2015,10,14,02,08,9.30
2015,10,14,02,09,9.30
2015,10,14,02,10,9.30
2015,10,14,02,11,9.30
2015,10,14,02,12,9.30
2015,10,14,02,13,9.40
2015,10,14,02,14,9.40
2015,10,14,02,16,9.50
2015,10,14,02,17,9.60
2015,10,14,02,18,9.70
2015,10,14,02,19,9.70
2015,10,14,02,21,9.80
2015,10,14,02,22,9.80
2015,10,14,02,23,9.80
2015,10,14,02,24,9.90
2015,10,14,02,26,9.90
2015,10,14,02,27,9.90
2015,10,14,02,28,9.90
2015,10,14,02,29,9.90
2015,10,14,02,31,10.10
2015,10,14,02,32,10.10
2015,10,14,02,33,10.10
2015,10,14,02,34,10.10
2015,10,14,02,36,10.10
2015,10,14,02,37,10.10
2015,10,14,02,38,10.10
2015,10,14,02,39,10.10
2015,10,14,02,41,10.10
2015,10,14,02,42,10.10
2015,10,14,02,43,10.10
2015,10,14,02,44,10.10
2015,10,14,02,46,10.10
2015,10,14,02,47,10.20
2015,10,14,02,48,10.10
2015,10,14,02,49,10.10
2015,10,14,02,51,10.10
2015,10,14,02,52,10.10
2015,10,14,02,53,10.10
2015,10,14,02,54,10.10
2015,10,14,02,56,10.10
2015,10,14,02,57,10.10
2015,10,14,02,58,10.10
2015,10,14,02,59,10.10
2015,10,14,03,01,9.90
2015,10,14,03,02,9.90
2015,10,14,03,03,9.90
2015,10,14,03,04,9.90
2015,10,14,03,06,9.90
2015,10,14,03,07,9.80
2015,10,14,03,08,9.80
2015,10,14,03,09,9.80
2015,10,14,03,11,9.70
2015,10,14,03,12,9.70
2015,10,14,03,13,9.70
2015,10,14,03,14,9.60
2015,10,14,03,16,9.50
2015,10,14,03,17,9.50
2015,10,14,03,18,9.50
2015,10,14,03,19,9.40
2015,10,14,03,21,9.40
2015,10,14,03,22,9.40
2015,10,14,03,23,9.40
2015,10,14,03,24,9.30
2015,10,14,03,26,9.30
2015,10,14,03,27,9.30
2015,10,14,03,28,9.30
2015,10,14,03,29,9.30
2015,10,14,03,31,9.20
2015,10,14,03,32,9.20
2015,10,14,03,33,9.20
2015,10,14,03,34,9.20
2015,10,14,03,36,9.30
2015,10,14,03,37,9.30
2015,10,14,03,38,9.30
2015,10,14,03,39,9.30
2015,10,14,03,41,9.40
2015,10,14,03,42,9.50
2015,10,14,03,43,9.50
2015,10,14,03,44,9.50
2015,10,14,03,46,9.60
2015,10,14,03,47,9.60
2015,10,14,03,48,9.60
2015,10,14,03,49,9.60
2015,10,14,03,51,9.70
2015,10,14,03,52,9.70
2015,10,14,03,53,9.70
2015,10,14,03,54,9.80
2015,10,14,03,56,9.90
2015,10,14,03,57,9.90
2015,10,14,03,58,9.90
2015,10,14,03,59,9.90
2015,10,14,04,01,10.10
2015,10,14,04,02,10.10
2015,10,14,04,03,10.10
2015,10,14,04,04,10.10
2015,10,14,04,06,10.10
2015,10,14,04,07,10.20
2015,10,14,04,08,10.20
2015,10,14,04,09,10.20
2015,10,14,04,11,10.20
2015,10,14,04,24,10.30
2015,10,14,04,25,10.30
2015,10,14,04,27,10.30
2015,10,14,04,29,10.30
2015,10,14,04,31,10.30
2015,10,14,04,32,10.30
2015,10,14,04,33,10.30
2015,10,14,04,34,10.30
2015,10,14,04,36,10.30
2015,10,14,04,37,10.30
2015,10,14,04,38,10.30
2015,10,14,04,39,10.30
2015,10,14,04,41,10.30
2015,10,14,04,42,10.30
2015,10,14,04,43,10.30
2015,10,14,04,44,10.30
2015,10,14,04,46,10.30
2015,10,14,04,47,10.30
2015,10,14,04,48,10.30
2015,10,14,04,49,10.30
2015,10,14,04,51,10.30
2015,10,14,04,52,10.30
2015,10,14,04,53,10.30
2015,10,14,04,54,10.30
2015,10,14,04,56,10.20
2015,10,14,04,57,10.20
2015,10,14,04,58,10.20
2015,10,14,04,59,10.20
2015,10,14,05,01,10.20
2015,10,14,05,02,10.20
2015,10,14,05,03,10.20
2015,10,14,05,04,10.20
2015,10,14,05,06,10.10
2015,10,14,05,07,10.10
2015,10,14,05,08,10.10
2015,10,14,05,09,10.10
2015,10,14,05,11,10.10
2015,10,14,05,12,10.10
2015,10,14,05,13,10.10
2015,10,14,05,14,10.10
2015,10,14,05,16,9.90
2015,10,14,05,17,9.90
2015,10,14,05,18,9.90
2015,10,14,05,19,9.90
2015,10,14,05,21,9.90
2015,10,14,05,22,9.90
2015,10,14,05,23,9.90
2015,10,14,05,24,9.90
2015,10,14,05,26,9.90
2015,10,14,05,27,9.90
2015,10,14,05,28,9.90
2015,10,14,05,29,9.80
2015,10,14,05,31,9.80
2015,10,14,05,32,9.80
2015,10,14,05,33,9.80
2015,10,14,05,34,9.80
2015,10,14,05,36,9.80
2015,10,14,05,37,9.80
2015,10,14,05,38,9.70
2015,10,14,05,39,9.70
2015,10,14,05,41,9.70
2015,10,14,05,42,9.80
2015,10,14,05,43,9.80
2015,10,14,05,44,9.80
2015,10,14,05,46,9.80
2015,10,14,05,47,9.80
2015,10,14,05,48,9.80
2015,10,14,05,49,9.90
2015,10,14,05,51,9.90
2015,10,14,05,52,9.90
2015,10,14,05,53,9.90
2015,10,14,05,54,9.90
2015,10,14,05,56,9.90
2015,10,14,05,57,9.90
2015,10,14,05,58,9.90
2015,10,14,05,59,9.90
2015,10,14,06,01,9.90
2015,10,14,06,02,9.90
2015,10,14,06,03,9.90
2015,10,14,06,04,9.90
2015,10,14,06,06,9.90
2015,10,14,06,07,9.90
2015,10,14,06,08,9.90
2015,10,14,06,09,9.90
2015,10,14,06,11,10.10
2015,10,14,06,12,10.10
2015,10,14,06,13,10.10
2015,10,14,06,14,10.10
2015,10,14,06,16,10.10
2015,10,14,06,17,10.10
2015,10,14,06,18,10.10
2015,10,14,06,19,10.10
2015,10,14,06,21,10.10
2015,10,14,06,22,10.10
2015,10,14,06,23,10.10
2015,10,14,06,24,10.10
2015,10,14,06,26,10.10
2015,10,14,06,27,10.10
2015,10,14,06,28,9.90
2015,10,14,06,29,9.90
2015,10,14,06,31,9.90
2015,10,14,06,32,9.90
2015,10,14,06,33,9.90
2015,10,14,06,34,9.90
2015,10,14,06,36,9.90
2015,10,14,06,37,9.90
2015,10,14,06,38,9.90
2015,10,14,06,39,9.90
2015,10,14,06,41,9.90
2015,10,14,06,42,9.90
2015,10,14,06,43,9.90
2015,10,14,06,44,9.90
2015,10,14,06,45,9.90
2015,10,14,06,46,9.90
2015,10,14,06,47,9.90
2015,10,14,06,48,9.90
2015,10,14,06,49,9.90
2015,10,14,06,50,9.90
2015,10,14,06,51,9.90
2015,10,14,06,52,9.90
2015,10,14,06,53,9.90
2015,10,14,06,54,9.90
2015,10,14,06,55,9.90
2015,10,14,06,56,9.90
2015,10,14,06,57,9.90
2015,10,14,06,58,9.90
2015,10,14,06,59,9.90
2015,10,14,07,00,9.90
2015,10,14,07,01,9.90
2015,10,14,07,02,9.90
2015,10,14,07,03,9.90
2015,10,14,07,04,9.90
2015,10,14,07,05,9.90
2015,10,14,07,06,9.90
2015,10,14,07,07,9.90
2015,10,14,07,08,9.90
2015,10,14,07,09,9.90
2015,10,14,07,10,9.90
2015,10,14,07,11,9.90
2015,10,14,07,12,9.90
2015,10,14,07,13,9.90
2015,10,14,07,14,9.90
2015,10,14,07,15,9.90
2015,10,14,07,16,9.90
2015,10,14,07,17,9.90
2015,10,14,07,18,9.90
2015,10,14,07,19,9.90
2015,10,14,07,20,9.90
2015,10,14,07,21,9.90
2015,10,14,07,22,9.90
2015,10,14,07,24,9.90
2015,10,14,07,26,9.90
2015,10,14,07,27,9.90
2015,10,14,07,28,9.90
2015,10,14,07,29,9.90
2015,10,14,07,31,10.10
2015,10,14,07,32,10.10
2015,10,14,07,33,10.10
2015,10,14,07,34,10.10
2015,10,14,07,36,10.10
2015,10,14,07,37,10.10
2015,10,14,07,38,10.10
2015,10,14,07,39,10.10
2015,10,14,07,41,10.10
2015,10,14,07,42,10.10
2015,10,14,07,43,10.10
2015,10,14,07,44,10.10
2015,10,14,07,46,10.10
2015,10,14,07,47,10.10
2015,10,14,07,48,10.10
2015,10,14,07,49,10.10
2015,10,14,07,51,10.10
2015,10,14,07,52,10.20
2015,10,14,07,53,10.20
2015,10,14,07,54,10.20
2015,10,14,07,56,10.20
2015,10,14,07,57,10.20
2015,10,14,07,58,10.20
2015,10,14,07,59,10.20
2015,10,14,08,01,10.20
2015,10,14,08,02,10.20
2015,10,14,08,03,10.20
2015,10,14,08,04,10.20
2015,10,14,08,06,10.20
2015,10,14,08,07,10.20
2015,10,14,08,08,10.20
2015,10,14,08,09,10.20
2015,10,14,08,11,10.20
2015,10,14,08,12,10.20
2015,10,14,08,13,10.20
2015,10,14,08,14,10.20
2015,10,14,08,16,10.20
2015,10,14,08,17,10.20
2015,10,14,08,18,10.30
2015,10,14,08,19,10.30
2015,10,14,08,21,10.30
2015,10,14,08,22,10.30
2015,10,14,08,23,10.30
2015,10,14,08,24,10.30
2015,10,14,08,26,10.40
2015,10,14,08,27,10.40
2015,10,14,08,28,10.40
2015,10,14,08,29,10.40
2015,10,14,08,31,10.40
2015,10,14,08,32,10.40
2015,10,14,08,33,10.40
2015,10,14,08,34,10.40
2015,10,14,08,36,10.40
2015,10,14,08,37,10.40
2015,10,14,08,38,10.40
2015,10,14,08,39,10.40
2015,10,14,08,41,10.60
2015,10,14,08,42,10.60
2015,10,14,08,43,10.60
2015,10,14,08,44,10.60
2015,10,14,08,46,10.60
2015,10,14,08,47,10.60
2015,10,14,08,48,10.60
2015,10,14,08,49,10.70
2015,10,14,08,51,10.70
2015,10,14,08,52,10.70
2015,10,14,08,53,10.70
2015,10,14,08,54,10.70
2015,10,14,08,56,10.70
2015,10,14,08,57,10.70
2015,10,14,08,58,10.70
2015,10,14,08,59,10.70
2015,10,14,09,01,10.70
2015,10,14,09,02,10.70
2015,10,14,09,03,10.70
2015,10,14,09,04,10.70
2015,10,14,09,06,10.70
2015,10,14,09,07,10.70
2015,10,14,09,08,10.70
2015,10,14,09,09,10.70
2015,10,14,09,11,10.80
2015,10,14,09,12,10.80
2015,10,14,09,13,10.80
2015,10,14,09,14,10.80
2015,10,14,09,16,10.90
2015,10,14,09,17,10.90
2015,10,14,09,18,10.90
2015,10,14,09,19,10.90
2015,10,14,09,21,10.90
2015,10,14,09,22,10.90
2015,10,14,09,23,10.90
2015,10,14,09,24,10.90
2015,10,14,09,25,10.90
2015,10,14,09,26,10.90
2015,10,14,09,27,10.90
2015,10,14,09,28,11.10
2015,10,14,09,29,11.10
2015,10,14,09,30,11.10
2015,10,14,09,31,11.10
2015,10,14,09,32,11.10
2015,10,14,09,33,11.10
2015,10,14,09,34,11.10
2015,10,14,09,35,11.10
2015,10,14,09,36,11.20
2015,10,14,09,37,11.20
2015,10,14,09,38,11.20
2015,10,14,09,39,11.20
2015,10,14,09,40,11.20
2015,10,14,09,41,11.20
2015,10,14,09,42,11.30
2015,10,14,09,43,11.30
2015,10,14,09,44,11.30
2015,10,14,09,45,11.40
2015,10,14,09,46,11.40
2015,10,14,09,47,11.40
2015,10,14,09,48,11.40
2015,10,14,09,49,11.40
2015,10,14,09,50,11.40
2015,10,14,09,51,11.40
2015,10,14,09,52,11.40
2015,10,14,09,53,11.40
2015,10,14,09,54,11.40
2015,10,14,09,55,11.40
2015,10,14,09,56,11.40
2015,10,14,09,57,11.40
2015,10,14,09,58,11.40
2015,10,14,09,59,11.60
2015,10,14,10,00,11.60
2015,10,14,10,01,11.60
2015,10,14,10,02,11.60
2015,10,14,10,03,11.60
2015,10,14,10,04,11.60
2015,10,14,10,06,11.70
2015,10,14,10,07,11.70
2015,10,14,10,08,11.70
2015,10,14,10,09,11.70
2015,10,14,10,11,11.80
2015,10,14,10,12,11.80
2015,10,14,10,13,11.80
2015,10,14,10,14,11.80
2015,10,14,10,16,11.80
2015,10,14,10,17,11.80
2015,10,14,10,18,11.80
2015,10,14,10,19,11.80
2015,10,14,10,21,11.80
2015,10,14,10,22,11.90
2015,10,14,10,23,11.90
2015,10,14,10,24,11.90
2015,10,14,10,26,11.90
2015,10,14,10,27,11.90
2015,10,14,10,28,11.90
2015,10,14,10,29,11.90
2015,10,14,10,31,11.90
2015,10,14,10,32,11.90
2015,10,14,10,33,11.90
2015,10,14,10,34,11.90
2015,10,14,10,36,12.00
2015,10,14,10,37,12.00
2015,10,14,10,38,12.00
2015,10,14,10,39,12.00
2015,10,14,10,41,12.00
2015,10,14,10,42,12.10
2015,10,14,10,43,12.10
2015,10,14,10,44,12.10
2015,10,14,10,46,12.20
2015,10,14,10,47,12.20
2015,10,14,10,48,12.20
2015,10,14,10,49,12.30
2015,10,14,10,51,12.30
2015,10,14,10,52,12.30
2015,10,14,10,53,12.30
2015,10,14,10,54,12.30
2015,10,14,10,56,12.30
2015,10,14,10,57,12.30
2015,10,14,10,58,12.30
2015,10,14,10,59,12.30
2015,10,14,11,01,12.30
2015,10,14,11,02,12.30
2015,10,14,11,03,12.40
2015,10,14,11,04,12.40
2015,10,14,11,06,12.40
2015,10,14,11,07,12.40
2015,10,14,11,08,12.50
2015,10,14,11,09,12.50
2015,10,14,11,11,12.50
2015,10,14,11,12,12.50
2015,10,14,11,13,12.50
2015,10,14,11,14,12.50
2015,10,14,11,16,12.60
2015,10,14,11,17,12.60
2015,10,14,11,18,12.70
2015,10,14,11,19,12.70
2015,10,14,11,21,12.70
2015,10,14,11,22,12.60
2015,10,14,11,23,12.60
2015,10,14,11,24,12.60
2015,10,14,11,26,12.60
2015,10,14,11,27,12.60
2015,10,14,11,28,12.60
2015,10,14,11,29,12.50
2015,10,14,11,31,12.50
2015,10,14,11,32,12.50
2015,10,14,11,33,12.50
2015,10,14,11,34,12.50
2015,10,14,11,36,12.60
2015,10,14,11,37,12.60
2015,10,14,11,38,12.60
2015,10,14,11,39,12.70
2015,10,14,11,41,12.70
2015,10,14,11,42,12.70
2015,10,14,11,43,12.70
2015,10,14,11,44,12.70
2015,10,14,11,46,12.80
2015,10,14,11,47,12.80
2015,10,14,11,48,12.80
2015,10,14,11,49,12.80
2015,10,14,11,51,12.80
2015,10,14,11,52,12.90
2015,10,14,11,53,12.90
2015,10,14,11,54,13.00
2015,10,14,11,55,13.00
2015,10,14,11,56,13.00
2015,10,14,11,57,13.10
2015,10,14,11,58,13.10
2015,10,14,11,59,13.10
2015,10,14,12,00,13.20
2015,10,14,12,01,13.20
2015,10,14,12,02,13.20
2015,10,14,12,03,13.30
2015,10,14,12,04,13.30
2015,10,14,12,06,13.30
2015,10,14,12,07,13.30
2015,10,14,12,08,13.40
2015,10,14,12,09,13.40
2015,10,14,12,10,13.40
2015,10,14,12,11,13.40
2015,10,14,12,12,13.50
2015,10,14,12,13,13.50
2015,10,14,12,14,13.50
2015,10,14,12,15,13.50
2015,10,14,12,16,13.50
2015,10,14,12,17,13.50
2015,10,14,12,18,13.50
2015,10,14,12,19,13.50
2015,10,14,12,20,13.50
2015,10,14,12,21,13.50
2015,10,14,12,22,13.50
2015,10,14,12,23,13.50
2015,10,14,12,24,13.50
2015,10,14,12,25,13.50
2015,10,14,12,26,13.40
2015,10,14,12,28,13.40
2015,10,14,12,29,13.40
2015,10,14,12,31,13.30
2015,10,14,12,32,13.30
2015,10,14,12,33,13.30
2015,10,14,12,34,13.30
2015,10,14,12,36,13.30
2015,10,14,12,37,13.30
2015,10,14,12,38,13.30
2015,10,14,12,39,13.30
2015,10,14,12,41,13.30
2015,10,14,12,42,13.30
2015,10,14,12,43,13.40
2015,10,14,12,44,13.40
2015,10,14,12,46,13.40
2015,10,14,12,47,13.50
2015,10,14,12,48,13.50
2015,10,14,12,49,13.50
2015,10,14,12,51,13.50
2015,10,14,12,52,13.60
2015,10,14,12,53,13.60
2015,10,14,12,54,13.60
2015,10,14,12,56,13.60
2015,10,14,12,57,13.60
2015,10,14,12,58,13.50
2015,10,14,12,59,13.50
2015,10,14,13,01,13.50
2015,10,14,13,02,13.40
2015,10,14,13,03,13.40
2015,10,14,13,04,13.40
2015,10,14,13,06,13.40
2015,10,14,13,07,13.40
2015,10,14,13,08,13.40
2015,10,14,13,09,13.40
2015,10,14,13,11,13.40
2015,10,14,13,12,13.40
2015,10,14,13,13,13.40
2015,10,14,13,14,13.40
2015,10,14,13,16,13.40
2015,10,14,13,17,13.40
2015,10,14,13,18,13.40
2015,10,14,13,19,13.40
2015,10,14,13,21,13.40
2015,10,14,13,22,13.40
2015,10,14,13,23,13.40
2015,10,14,13,24,13.40
2015,10,14,13,26,13.40
2015,10,14,13,27,13.40
2015,10,14,13,28,13.40
2015,10,14,13,29,13.40
2015,10,14,13,31,13.40
2015,10,14,13,32,13.40
2015,10,14,13,33,13.50
2015,10,14,13,34,13.50
2015,10,14,13,36,13.50
2015,10,14,13,37,13.50
2015,10,14,13,38,13.60
2015,10,14,13,39,13.60
2015,10,14,13,41,13.60
2015,10,14,13,42,13.60
2015,10,14,13,43,13.60
2015,10,14,13,44,13.60
2015,10,14,13,46,13.70
2015,10,14,13,47,13.70
2015,10,14,13,48,13.70
2015,10,14,13,49,13.70
2015,10,14,13,51,13.70
2015,10,14,13,52,13.70
2015,10,14,13,53,13.70
2015,10,14,13,54,13.70
2015,10,14,13,55,13.70
2015,10,14,13,56,13.70
2015,10,14,13,57,13.70
2015,10,14,13,58,13.70
2015,10,14,13,59,13.70
2015,10,14,14,00,13.70
2015,10,14,14,01,13.70
2015,10,14,14,02,13.70
2015,10,14,14,03,13.70
2015,10,14,14,04,13.70
2015,10,14,14,05,13.70
2015,10,14,14,06,13.70
2015,10,14,14,07,13.70
2015,10,14,14,08,13.70
2015,10,14,14,09,13.70
2015,10,14,14,10,13.70
2015,10,14,14,11,13.70
2015,10,14,14,12,13.70
2015,10,14,14,13,13.70
2015,10,14,14,14,13.70
2015,10,14,14,15,13.70
2015,10,14,14,16,13.70
2015,10,14,14,17,13.70
2015,10,14,14,18,13.70
2015,10,14,14,19,13.70
2015,10,14,14,20,13.70
2015,10,14,14,21,13.70
2015,10,14,14,22,13.70
2015,10,14,14,23,13.70
2015,10,14,14,24,13.70
2015,10,14,14,26,13.70
2015,10,14,14,27,13.70
2015,10,14,14,28,13.70
2015,10,14,14,29,13.70
2015,10,14,14,31,13.70
2015,10,14,14,32,13.70
2015,10,14,14,33,13.70
2015,10,14,14,34,13.70
2015,10,14,14,36,13.70
2015,10,14,14,37,13.70
2015,10,14,14,38,13.70
2015,10,14,14,39,13.70
2015,10,14,14,41,13.70
2015,10,14,14,42,13.80
2015,10,14,14,43,13.80
2015,10,14,14,44,13.80
2015,10,14,14,46,13.80
2015,10,14,14,47,13.80
2015,10,14,14,48,13.80
2015,10,14,14,49,13.80
2015,10,14,14,51,13.80
2015,10,14,14,52,13.80
2015,10,14,14,53,13.90
2015,10,14,14,54,13.90
2015,10,14,14,56,13.90
2015,10,14,14,57,13.90
2015,10,14,14,58,13.90
2015,10,14,14,59,14.00
2015,10,14,15,01,14.00
2015,10,14,15,02,14.00
2015,10,14,15,03,14.00
2015,10,14,15,04,14.00
2015,10,14,15,06,14.10
2015,10,14,15,07,14.10
2015,10,14,15,08,14.10
2015,10,14,15,09,14.10
2015,10,14,15,11,14.20
2015,10,14,15,12,14.20
2015,10,14,15,13,14.20
2015,10,14,15,14,14.20
2015,10,14,15,16,14.20
2015,10,14,15,17,14.20
2015,10,14,15,18,14.20
2015,10,14,15,19,14.20
2015,10,14,15,21,14.20
2015,10,14,15,22,14.10
2015,10,14,15,23,14.10
2015,10,14,15,24,14.10
2015,10,14,15,26,14.10
2015,10,14,15,27,14.10
2015,10,14,15,28,14.00
2015,10,14,15,29,14.00
2015,10,14,15,31,13.90
2015,10,14,15,32,13.90
2015,10,14,15,33,13.90
2015,10,14,15,34,13.80
2015,10,14,15,36,13.80
2015,10,14,15,37,13.80
2015,10,14,15,38,13.80
2015,10,14,15,39,13.80
2015,10,14,15,41,13.80
2015,10,14,15,42,13.90
2015,10,14,15,43,13.90
2015,10,14,15,44,13.90
2015,10,14,15,46,13.90
2015,10,14,15,47,13.90
2015,10,14,15,48,13.90
2015,10,14,15,49,13.90
2015,10,14,15,51,13.80
2015,10,14,15,52,13.80
2015,10,14,15,53,13.80
2015,10,14,15,54,13.80
2015,10,14,15,56,13.70
2015,10,14,15,57,13.70
2015,10,14,15,58,13.70
2015,10,14,15,59,13.70
2015,10,14,16,01,13.60
2015,10,14,16,02,13.60
2015,10,14,16,03,13.60
2015,10,14,16,04,13.60
2015,10,14,16,06,13.60
2015,10,14,16,07,13.60
2015,10,14,16,08,13.60
2015,10,14,16,09,13.60
2015,10,14,16,11,13.50
2015,10,14,16,12,13.50
2015,10,14,16,13,13.50
2015,10,14,16,14,13.60
2015,10,14,16,15,13.60
2015,10,14,16,16,13.60
2015,10,14,16,17,13.60
2015,10,14,16,18,13.60
2015,10,14,16,19,13.60
2015,10,14,16,20,13.60
2015,10,14,16,21,13.60
2015,10,14,16,22,13.60
2015,10,14,16,23,13.60
2015,10,14,16,24,13.60
2015,10,14,16,25,13.60
2015,10,14,16,26,13.60
2015,10,14,16,27,13.60
2015,10,14,16,28,13.60
2015,10,14,16,29,13.60
2015,10,14,16,30,13.60
2015,10,14,16,31,13.60
2015,10,14,16,32,13.60
2015,10,14,16,33,13.60
2015,10,14,16,34,13.60
2015,10,14,16,35,13.60
2015,10,14,16,36,13.60
2015,10,14,16,37,13.50
2015,10,14,16,38,13.50
2015,10,14,16,39,13.50
2015,10,14,16,40,13.50
2015,10,14,16,41,13.50
2015,10,14,16,42,13.50
2015,10,14,16,43,13.50
2015,10,14,16,44,13.40
2015,10,14,16,45,13.40
2015,10,14,16,46,13.40
2015,10,14,16,47,13.40
2015,10,14,16,48,13.40
2015,10,14,16,49,13.30
2015,10,14,16,50,13.30
2015,10,14,16,52,13.30
2015,10,14,16,54,13.20
2015,10,14,16,56,13.10
2015,10,14,16,57,13.10
2015,10,14,16,58,13.00
2015,10,14,16,59,13.00
2015,10,14,17,01,13.00
2015,10,14,17,02,13.00
2015,10,14,17,03,13.00
2015,10,14,17,04,13.00
2015,10,14,17,06,12.90
2015,10,14,17,07,12.90
2015,10,14,17,08,12.90
2015,10,14,17,09,12.90
2015,10,14,17,11,12.90
2015,10,14,17,12,12.90
2015,10,14,17,13,12.90
2015,10,14,17,14,12.80
2015,10,14,17,16,12.80
2015,10,14,17,17,12.80
2015,10,14,17,18,12.80
2015,10,14,17,19,12.80
2015,10,14,17,21,12.70
2015,10,14,17,22,12.70
2015,10,14,17,23,12.70
2015,10,14,17,24,12.60
2015,10,14,17,26,12.60
2015,10,14,17,27,12.60
2015,10,14,17,28,12.60
2015,10,14,17,29,12.50
2015,10,14,17,31,12.50
2015,10,14,17,32,12.50
2015,10,14,17,33,12.50
2015,10,14,17,34,12.50
2015,10,14,17,36,12.50
2015,10,14,17,37,12.40
2015,10,14,17,38,12.40
2015,10,14,17,39,12.40
2015,10,14,17,41,12.40
2015,10,14,17,42,12.30
2015,10,14,17,43,12.30
2015,10,14,17,44,12.30
2015,10,14,17,46,12.30
2015,10,14,17,47,12.30
2015,10,14,17,48,12.30
2015,10,14,17,49,12.30
2015,10,14,17,51,12.30
2015,10,14,17,52,12.30
2015,10,14,17,53,12.30
2015,10,14,17,54,12.30
2015,10,14,17,56,12.30
2015,10,14,17,57,12.30
2015,10,14,17,58,12.20
2015,10,14,17,59,12.20
2015,10,14,18,01,12.20
2015,10,14,18,02,12.20
2015,10,14,18,03,12.20
2015,10,14,18,04,12.20
2015,10,14,18,06,12.10
2015,10,14,18,07,12.10
2015,10,14,18,08,12.10
2015,10,14,18,09,12.10
2015,10,14,18,11,12.10
2015,10,14,18,12,12.10
2015,10,14,18,13,12.00
2015,10,14,18,14,12.00
2015,10,14,18,16,12.00
2015,10,14,18,17,12.00
2015,10,14,18,18,12.00
2015,10,14,18,19,12.00
2015,10,14,18,21,11.90
2015,10,14,18,22,11.90
2015,10,14,18,23,11.90
2015,10,14,18,24,11.90
2015,10,14,18,26,11.80
2015,10,14,18,27,11.80
2015,10,14,18,28,11.80
2015,10,14,18,29,11.80
2015,10,14,18,31,11.70
2015,10,14,18,32,11.70
2015,10,14,18,33,11.60
2015,10,14,18,34,11.60
2015,10,14,18,36,11.40
2015,10,14,18,37,11.40
2015,10,14,18,38,11.40
2015,10,14,18,39,11.30
2015,10,14,18,41,11.20
2015,10,14,18,42,11.20
2015,10,14,18,43,11.20
2015,10,14,18,44,11.10
2015,10,14,18,46,11.10
2015,10,14,18,47,11.10
2015,10,14,18,48,11.10
2015,10,14,18,49,11.10
2015,10,14,18,51,10.90
2015,10,14,18,52,10.90
2015,10,14,18,53,10.90
2015,10,14,18,54,10.90
2015,10,14,18,56,10.90
2015,10,14,18,57,10.90
2015,10,14,18,58,10.90
2015,10,14,18,59,10.90
2015,10,14,19,01,10.80
2015,10,14,19,02,10.80
2015,10,14,19,03,10.80
2015,10,14,19,04,10.80
2015,10,14,19,06,10.70
2015,10,14,19,07,10.70
2015,10,14,19,08,10.70
2015,10,14,19,09,10.70
2015,10,14,19,10,10.70
2015,10,14,19,11,10.70
2015,10,14,19,12,10.70
2015,10,14,19,13,10.60
2015,10,14,19,14,10.60
2015,10,14,19,15,10.60
2015,10,14,19,16,10.60
2015,10,14,19,17,10.60
2015,10,14,19,18,10.60
2015,10,14,19,19,10.60
2015,10,14,19,20,10.60
2015,10,14,19,21,10.60
2015,10,14,19,22,10.60
2015,10,14,19,23,10.60
2015,10,14,19,24,10.60
2015,10,14,19,25,10.60
2015,10,14,19,26,10.60
2015,10,14,19,27,10.60
2015,10,14,19,28,10.60
2015,10,14,19,29,10.60
2015,10,14,19,30,10.60
2015,10,14,19,31,10.40
2015,10,14,19,32,10.40
2015,10,14,19,33,10.40
2015,10,14,19,34,10.40
2015,10,14,19,35,10.40
2015,10,14,19,36,10.40
2015,10,14,19,37,10.40
2015,10,14,19,38,10.40
2015,10,14,19,39,10.40
2015,10,14,19,40,10.40
2015,10,14,19,41,10.40
2015,10,14,19,42,10.40
2015,10,14,19,43,10.40
2015,10,14,19,44,10.40
2015,10,14,19,46,10.40
2015,10,14,19,47,10.40
2015,10,14,19,48,10.40
2015,10,14,19,49,10.40
2015,10,14,19,51,10.30
2015,10,14,19,52,10.30
2015,10,14,19,53,10.30
2015,10,14,19,54,10.30
2015,10,14,19,56,10.20
2015,10,14,19,57,10.20
2015,10,14,19,58,10.20
2015,10,14,19,59,10.20
2015,10,14,20,01,10.20
2015,10,14,20,02,10.20
2015,10,14,20,03,10.20
2015,10,14,20,04,10.20
2015,10,14,20,06,10.20
2015,10,14,20,07,10.10
2015,10,14,20,08,10.10
2015,10,14,20,09,10.10
2015,10,14,20,11,10.10
2015,10,14,20,12,10.10
2015,10,14,20,13,10.10
2015,10,14,20,14,10.10
2015,10,14,20,16,10.10
2015,10,14,20,17,10.10
2015,10,14,20,18,10.10
2015,10,14,20,19,10.10
2015,10,14,20,21,10.10
2015,10,14,20,22,10.10
2015,10,14,20,23,10.10
2015,10,14,20,24,10.10
2015,10,14,20,26,10.10
2015,10,14,20,27,10.10
2015,10,14,20,28,10.10
2015,10,14,20,29,10.10
2015,10,14,20,31,9.90
2015,10,14,20,32,9.90
2015,10,14,20,33,9.90
2015,10,14,20,34,10.10
2015,10,14,20,36,10.10
2015,10,14,20,37,10.10
2015,10,14,20,38,10.10
2015,10,14,20,39,10.10
2015,10,14,20,41,9.90
2015,10,14,20,42,9.90
2015,10,14,20,43,9.90
2015,10,14,20,44,9.90
2015,10,14,20,46,9.90
2015,10,14,20,47,9.90
2015,10,14,20,48,9.90
2015,10,14,20,49,9.90
2015,10,14,20,51,9.80
2015,10,14,20,52,9.80
2015,10,14,20,53,9.80
2015,10,14,20,54,9.80
2015,10,14,20,56,9.70
2015,10,14,20,57,9.70
2015,10,14,20,58,9.70
2015,10,14,20,59,9.70
2015,10,14,21,01,9.70
2015,10,14,21,02,9.70
2015,10,14,21,03,9.70
2015,10,14,21,04,9.70
2015,10,14,21,06,9.70
2015,10,14,21,07,9.70
2015,10,14,21,08,9.70
2015,10,14,21,09,9.60